Weather Roundup
Issued by NWS

Home | Current Version | Previous Version | Text Only | Print | Product List | Glossary On
Versions: 1 2 3 4 5 6 7 8 9 10 11 12 13 14 15 16 17 18 19 20 21 22 23 24 25 26 27 28 29 30 31 32 33 34 35 36 37 38 39 40 41 42 43 44 45 46 47 48 49 50
924
NZUS93 KARX 221310
HRRWXR

CURRENT HOURLY OBSERVATIONS ACROSS
MUCH OF THE UPPER MISSISSIPPI VALLEY
NATIONAL WEATHER SERVICE LA CROSSE WI
800 AM CDT THU AUG 22 2019


...SOUTHEAST MINNESOTA...


CITY           SKY/WX    TMP DP  RH WIND       PRES   REMARKS
ROCHESTER      FAIR      57  54  89 NW5       30.08R
ROCHESTER/MAYO FAIR      57  55  93 CALM      30.08R
WINONA         FOG       55  55 100 CALM      30.06R VSB 1
AUSTIN         FAIR      57  52  82 CALM      30.08R
ALBERT LEA     FAIR      55  55 100 CALM      30.08R
DODGE CENTER   FAIR      57  52  82 CALM      30.08R
PRESTON        FAIR      56  54  94 CALM      30.08R
OWATONNA       NOT AVBL
FARIBAULT      NOT AVBL
$$

...ELSEWHERE IN MINNESOTA...


CITY           SKY/WX    TMP DP  RH WIND       PRES   REMARKS
MINNEAPOLIS    FAIR      62  52  69 N6        30.09R
INTNL FALLS    CLOUDY    56  52  86 E3        30.11S
DULUTH         CLOUDY    57  49  74 NE3       30.10R
RED WING       FAIR      57  55  94 CALM      30.07R
REDWOOD FALLS  SUNNY     57  54  89 CALM      30.09S
MANKATO        FAIR      58  55  90 N6        30.09R
WORTHINGTON    SUNNY     57  54  89 N3        30.11R
FAIRMONT       SUNNY     57  55  93 N5        30.09R
$$

...SOUTHWEST WISCONSIN...


CITY           SKY/WX    TMP DP  RH WIND       PRES   REMARKS
LA CROSSE      FOG       58  56  93 E5        30.05S VSB 1/4
PRAIRIE DU CHI FOG       57  56  97 CALM      30.06R VSB<1/4
BOSCOBEL       FOG       57  56  96 CALM      30.07R VSB 3/4
LONE ROCK      CLOUDY    54  54 100 CALM      30.06R FOG
PLATTEVILLE    FAIR      62  58  86 NE5       30.06R
FORT MC COY    CLOUDY    52  51  95 CALM      30.07R
CAMP DOUGLAS   PTSUNNY   54  54 100 CALM      30.07R
MAUSTON-NEW LI CLOUDY    55  55  97 CALM      30.06R
VIROQUA        FAIR      61  59  95 CALM      30.07R
WIS DELLS      FAIR      55  54  95 CALM      30.07R
$$

...ELSEWHERE IN WISCONSIN...


CITY           SKY/WX    TMP DP  RH WIND       PRES   REMARKS
MILWAUKEE      FAIR      69  56  62 E12       30.04R
MADISON        FAIR      60  54  80 CALM      30.05R
GREEN BAY      CLOUDY    59  55  87 N3        30.06S
EAU CLAIRE     PTSUNNY   59  54  83 NW3       30.06R
BLACK RVR FLS  CLOUDY    56  56 100 CALM      30.06R
MEDFORD        PTSUNNY   55  50  83 CALM      30.07R
WAUSAU         CLOUDY    56  51  84 E5        30.06R
WIS RAPIDS     CLOUDY    59  55  87 CALM      30.07R
MARSHFIELD     CLOUDY    58  52  80 SE7       30.06R
RICE LAKE      FAIR      56  40  55 CALM      30.09S
$$

...NORTHEAST IOWA...


CITY           SKY/WX    TMP DP  RH WIND       PRES   REMARKS
WATERLOO       FAIR      60  57  89 CALM      30.06R
DUBUQUE        FAIR      62  58  86 N6        30.05R
DECORAH        FAIR      57  57 100 CALM      30.06R
MASON CITY     SUNNY     58  55  90 NW3       30.09R
CHARLES CITY   FAIR      57  57 100 CALM      30.07R
OELWEIN        SUNNY     61  61 100 CALM      30.07R
$$

...ELSEWHERE IN IOWA...


CITY           SKY/WX    TMP DP  RH WIND       PRES   REMARKS
DES MOINES     PTSUNNY   64  57  78 NE7       30.05R
IOWA CITY      FAIR      67  56  67 N7        30.05R
FORT DODGE     SUNNY     57  57 100 CALM      30.10R
MARSHALLTOWN   SUNNY     58  58 100 N5        30.06R
CEDAR RAPIDS   FAIR      61  59  93 N3        30.04R
$$

...NORTHERN ILLINOIS...


CITY           SKY/WX    TMP DP  RH WIND       PRES   REMARKS
CHICAGO-OHARE  PTSUNNY   67  61  81 N7        29.99S
CHICAGO-MIDWAY PTSUNNY   71  63  75 N8        29.99R
MOLINE         FAIR      67  58  72 N5        30.02R
ROCKFORD       FAIR      65  58  78 N9        30.04R
PEORIA         FAIR      70  64  81 NE5       29.99S
$$

NOTE: "FAIR" INDICATES FEW OR NO CLOUDS BELOW 12,000 FEET WITH NO
SIGNIFICANT WEATHER AND/OR OBSTRUCTIONS TO VISIBILITY. WIND
SPEEDS ARE IN MILES-PER-HOUR.




USA.gov is the U.S. government's official web portal to all federal, state and local government web resources and services.